RH
64 63 63 62 61 60 59 58 56 55 53 51 49 47 44 42 40 38 35 34 32 30 29 27 26 25 23 23 23 23 23 23 24 25 25 25 24 24 24 25 26 26 26 26 26 26 25 25 25 24 23 23 22 22 21 19 18 17 16 15 15 14 13 13 12 11 11 10 10 9 9 9 9 8 8 8 8 8 7 7 7 7 6 6 6 6
63 62 61 59 57 55 53 51 48 46 43 41 38 36 34 32 30 29 27 26 25 26 27 29 31 31 29 29 30 31 31 31 31 31 29 28 26 25 24 23 22 21 20 19 18 18 18 17 16 15 15 14 14 13 13 12 11 11 10 10 9 9 9 8 8 7 7 7 6 6 6 6 6 5 5 5 5 5 5 5 5 5 4 4 4 4
58 56 53 51 48 45 43 40 37 34 32 31 30 29 29 30 31 34 34 33 33 34 34 35 35 34 32 30 29 28 26 25 23 21 19 17 15 14 14 13 13 12 11 11 10 11 11 11 11 10 10 10 10 10 9 9 9 8 8 8 8 8 8 7 7 7 7 6 6 6 5 5 5 5 4 4 4 4 4 4 4 4 4 4 3 3
48 46 43 40 37 34 32 30 30 30 30 32 34 36 38 38 39 40 39 36 33 31 28 26 24 23 21 19 17 16 15 14 14 13 12 11 11 11 12 13 13 13 12 11 12 12 11 12 11 11 11 11 11 11 10 11 10 10 9 9 9 8 8 8 8 7 7 7 7 6 6 6 6 5 5 5 5 5 5 4 4 4 4 4 4 4
38 35 32 31 30 31 33 36 39 41 42 42 41 40 38 35 32 29 26 23 22 20 19 18 18 20 19 17 14 13 14 14 14 14 13 13 13 13 14 15 14 14 14 14 13 14 13 13 13 13 13 12 12 12 12 12 11 11 10 10 10 9 9 9 8 8 8 7 7 7 7 6 7 6 6 6 6 6 6 6 6 5 5 5 5 5
30 29 31 35 39 42 45 46 45 42 38 34 31 28 25 23 21 20 20 20 20 20 19 18 19 20 22 21 18 16 15 15 15 14 14 13 13 13 13 13 13 13 13 13 12 13 13 13 13 13 13 13 13 12 12 12 12 12 11 11 10 10 10 9 9 9 9 9 8 8 8 8 8 8 7 7 7 7 7 6 6 6 6 6 6 6
38 41 44 46 46 44 41 36 32 28 25 24 23 22 22 22 22 22 21 21 21 21 20 19 18 19 20 20 18 17 16 15 15 14 13 13 13 12 12 12 13 13 12 12 12 12 12 12 13 13 13 13 13 13 13 13 12 12 12 11 11 11 10 10 10 10 9 9 9 9 9 8 8 8 8 8 8 8 7 7 7 7 6 6 6 6
48 47 44 40 35 31 27 25 24 23 23 23 23 24 23 23 22 21 20 19 19 19 17 17 16 16 16 16 15 14 15 14 13 13 12 12 11 11 11 11 11 11 11 11 11 11 11 11 12 12 12 13 13 13 13 13 12 12 12 12 11 11 11 11 11 10 10 10 10 9 9 9 9 8 9 9 9 8 8 8 8 7 7 7 6 6
40 35 31 27 25 24 24 25 26 25 24 23 23 23 22 22 21 20 19 19 19 20 19 18 16 16 17 17 15 14 15 14 13 12 11 11 10 10 10 9 9 9 9 9 9 9 9 9 10 10 10 11 11 12 11 12 12 12 12 12 12 12 11 12 11 11 11 11 10 10 10 10 10 9 9 10 10 10 9 10 9 9 9 9 8 8
27 25 24 24 24 25 25 25 25 24 24 25 26 28 29 29 29 28 28 27 28 29 27 25 22 21 22 21 19 20 20 18 16 14 12 12 12 12 11 10 9 9 8 8 8 8 8 8 8 8 9 9 9 10 10 10 11 11 11 11 11 11 11 11 11 11 11 10 10 10 10 10 10 10 10 10 10 10 10 10 11 11 11 11 11 10
25 25 25 26 26 26 27 27 27 28 31 32 34 37 38 38 38 37 36 35 35 35 34 32 29 27 27 24 23 24 23 21 18 16 15 14 14 13 12 10 9 9 8 8 7 7 7 7 7 7 7 8 9 9 9 10 10 10 10 10 10 10 10 10 9 9 9 9 9 9 9 9 9 9 9 9 9 10 10 10 10 11 11 11 11 11
27 27 27 28 29 31 34 36 36 38 40 40 39 39 39 39 38 38 37 36 36 36 35 34 30 29 29 26 24 24 23 21 19 17 16 15 13 13 12 11 10 9 8 8 7 7 6 6 6 6 6 6 7 8 8 9 9 10 10 10 10 10 10 9 9 9 9 9 8 8 8 8 8 9 8 9 9 9 10 10 10 10 10 10 10 10
30 31 33 35 37 39 41 42 42 41 40 39 37 36 34 33 32 32 32 31 31 31 31 29 27 26 25 24 23 22 21 20 18 17 16 14 13 12 11 10 10 9 8 8 7 6 6 6 6 5 6 6 6 6 7 8 8 9 9 10 10 10 10 10 10 9 9 9 8 8 8 7 7 8 7 8 8 9 10 9 10 9 9 9 9 9
40 40 41 41 40 40 39 38 37 36 34 32 31 30 29 27 26 26 26 25 25 25 27 26 24 24 22 21 21 20 19 19 19 18 17 15 13 12 11 10 9 8 8 7 7 6 6 6 5 5 5 5 5 5 5 6 7 7 8 9 9 10 10 10 10 10 10 9 9 8 7 7 6 7 7 7 7 7 8 8 9 9 9 9 9 9
43 42 40 39 37 35 34 32 30 29 28 28 28 27 27 26 26 25 24 23 22 22 24 25 24 24 23 21 20 19 19 19 19 18 17 15 14 12 11 10 9 8 8 8 7 7 6 6 5 5 5 4 4 4 4 5 5 6 7 7 8 9 10 10 10 11 11 10 10 9 8 7 6 6 6 6 6 6 6 7 7 7 7 8 8 8
40 38 36 34 32 30 29 28 27 28 27 27 27 27 28 28 27 26 25 25 23 21 23 23 23 24 22 19 18 18 17 17 17 16 15 14 13 12 11 10 10 9 9 9 8 8 7 6 5 5 5 5 4 4 4 4 4 5 5 5 6 6 7 8 8 9 9 9 9 8 8 7 6 6 5 5 5 5 5 5 5 5 6 6 6 7
35 34 32 30 29 27 27 28 27 27 27 28 28 28 28 28 28 27 25 25 23 21 22 21 20 21 21 17 17 17 16 16 15 14 13 12 12 12 11 10 10 9 9 8 7 7 6 6 6 6 5 5 5 5 4 4 4 4 4 4 4 4 5 5 6 6 7 7 7 7 7 6 5 5 4 4 4 4 4 4 4 5 5 5 5 5
31 30 30 28 27 27 28 28 29 29 29 30 30 30 29 29 29 27 25 23 22 20 20 20 19 20 19 17 15 16 15 14 14 12 12 11 11 11 11 10 9 8 8 7 7 7 6 6 6 5 5 5 4 4 4 4 4 3 3 3 3 3 3 3 4 4 4 5 5 5 5 5 5 4 4 4 4 3 3 3 3 3 4 4 4 4
29 29 29 28 27 28 28 29 31 32 31 31 32 32 32 31 29 26 24 22 21 20 18 18 19 19 18 15 13 12 12 12 11 10 10 10 10 9 8 7 7 7 7 7 7 6 6 5 5 4 4 3 3 3 3 3 3 3 3 3 3 3 3 3 3 3 3 3 3 3 4 4 4 4 4 4 4 4 3 3 3 3 3 3 3 3
27 28 30 30 28 28 29 30 31 31 30 31 33 34 34 33 30 28 28 26 25 24 20 17 17 17 15 12 11 11 10 10 9 8 8 8 7 6 5 5 5 5 5 5 5 5 4 4 4 3 3 3 3 3 3 3 2 2 2 2 3 2 2 3 2 3 3 3 3 3 3 3 3 3 3 3 3 3 3 3 3 3 3 3 3 3
28 29 30 30 30 29 30 30 29 29 30 31 33 34 34 34 32 30 30 31 29 26 20 15 14 16 15 13 11 10 10 10 9 8 7 7 6 6 5 5 5 5 4 4 3 3 3 3 3 3 3 3 3 3 3 3 2 2 2 2 3 2 2 3 2 3 2 2 3 3 3 3 3 3 3 2 3 2 2 3 3 3 3 3 3 3
29 30 30 30 29 28 29 31 32 34 35 35 36 36 36 36 33 29 26 25 24 21 19 17 17 18 18 15 12 11 11 11 10 9 8 7 6 5 5 5 4 4 3 3 3 2 2 3 2 3 3 2 3 3 3 3 3 3 3 2 3 3 2 2 2 2 2 2 3 2 2 2 2 3 2 2 2 2 2 2 2 2 2 2 2 2
30 31 32 32 31 31 36 40 42 44 42 38 37 35 35 33 29 25 20 19 20 22 23 22 18 19 20 16 13 12 12 12 11 9 8 6 5 5 5 4 4 3 3 2 3 2 2 2 2 2 2 2 2 2 2 2 2 2 2 2 2 2 2 2 2 2 2 2 2 2 2 2 2 2 2 2 2 2 2 2 2 2 2 2 2 2
31 31 32 32 30 34 45 50 49 49 43 35 32 30 31 31 29 28 26 26 28 29 29 24 17 19 22 18 15 13 11 10 9 7 6 4 4 4 4 4 3 3 3 3 2 2 2 2 2 2 2 2 2 2 2 2 2 2 2 2 2 2 2 2 2 2 2 2 2 2 2 2 2 2 2 2 2 2 2 2 2 2 2 2 2 2
35 35 36 36 28 24 31 33 31 34 33 29 29 30 33 36 35 35 34 34 34 32 33 30 21 20 23 18 14 13 10 9 7 6 5 4 4 4 4 4 3 3 3 3 3 3 3 2 2 2 2 2 2 2 2 2 2 2 2 2 2 2 2 2 2 2 2 3 2 2 3 2 3 3 3 3 2 2 2 2 2 2 2 2 2 2
43 43 46 54 48 32 27 29 27 26 28 31 35 38 41 41 39 39 38 36 32 28 33 35 26 20 19 15 12 11 9 7 6 4 4 4 3 4 4 3 3 3 3 3 3 3 3 3 3 3 2 2 2 2 2 2 3 3 3 3 3 3 3 3 3 3 3 3 3 2 3 3 2 3 3 3 3 3 2 2 2 2 2 2 2 2
52 50 52 68 72 54 47 52 49 41 39 40 44 48 48 46 44 44 42 37 31 27 30 32 26 19 15 12 10 10 8 6 5 4 3 3 3 3 3 3 3 3 3 3 3 3 3 3 3 3 3 3 3 3 3 3 3 3 3 3 3 3 3 3 3 3 3 3 3 3 3 3 3 3 3 3 3 3 3 3 3 2 2 2 2 2
57 55 54 68 78 65 58 65 61 52 48 48 50 53 52 51 50 47 42 37 33 31 30 26 22 17 12 10 9 9 8 5 4 3 3 2 3 3 3 3 2 2 2 2 2 2 3 3 3 3 3 3 3 3 3 3 3 3 3 3 3 3 3 3 3 4 4 3 4 4 3 3 3 3 3 3 3 3 3 3 3 3 2 2 2 2
59 60 57 67 79 69 59 66 66 56 51 50 52 56 55 52 50 44 40 39 36 33 30 23 17 14 11 9 9 8 8 5 3 3 2 2 3 2 2 2 2 2 2 2 3 2 2 2 2 3 3 3 3 3 3 3 3 3 3 3 3 3 3 4 4 4 4 4 3 3 3 3 3 3 3 3 3 3 3 2 2 2 2 2 2 2
64 67 61 65 77 71 62 68 67 57 50 48 49 53 51 49 50 49 45 40 33 28 26 20 15 13 11 9 9 9 7 4 3 2 2 3 3 2 3 3 2 3 2 2 3 2 2 2 2 2 2 2 3 3 3 3 3 3 3 3 3 4 3 3 4 3 3 3 3 3 3 3 3 3 3 2 2 2 2 2 2 2 2 2 2 2
69 73 67 65 72 70 65 70 69 57 47 44 46 49 47 46 51 52 44 34 23 18 18 17 13 11 10 8 8 9 7 4 3 2 2 3 3 2 3 3 3 3 3 3 3 2 3 3 2 2 2 2 3 3 3 3 3 3 4 4 4 3 4 3 3 3 3 3 3 2 3 3 3 3 2 2 2 2 2 2 2 2 2 2 2 2
71 73 70 65 65 62 61 67 67 53 42 44 48 46 41 41 44 46 41 30 22 17 14 12 11 9 8 7 7 7 7 4 3 2 2 3 3 3 3 2 3 3 2 3 3 3 3 3 3 3 3 3 3 3 3 3 4 4 4 4 4 3 4 4 3 3 3 3 3 3 3 3 2 2 2 2 2 2 2 2 2 2 2 2 2 2
67 69 66 61 60 57 57 64 66 55 45 45 46 38 34 36 36 39 40 30 22 20 17 13 11 9 7 6 6 6 6 5 3 2 2 2 2 3 3 2 2 2 2 3 2 3 3 2 3 3 2 3 3 3 4 3 3 4 3 3 4 4 4 4 4 4 4 3 3 3 3 3 3 2 2 2 2 2 2 2 2 2 2 2 2 2
65 68 67 64 62 58 58 64 65 54 41 38 40 37 37 37 31 32 40 32 21 20 19 15 13 9 6 6 5 5 6 5 3 2 2 2 2 2 2 2 2 2 2 3 2 2 3 2 3 3 2 3 3 3 3 3 3 3 3 3 4 4 4 4 4 4 4 3 3 3 3 3 3 3 2 2 2 2 2 2 2 2 2 2 2 2
67 71 71 69 66 60 61 68 63 48 37 42 50 46 37 35 30 29 37 36 24 18 16 13 11 9 7 7 5 5 6 5 4 2 2 2 2 2 2 2 2 2 2 3 3 2 3 3 3 3 3 3 3 3 4 4 4 4 4 4 4 4 4 4 4 4 4 3 3 3 3 3 2 3 3 2 2 2 2 2 2 2 2 2 2 2
67 71 71 69 66 58 57 67 67 56 49 52 56 47 34 31 28 22 27 32 24 17 13 10 9 8 7 7 5 4 5 6 4 3 2 3 2 2 2 2 2 2 2 2 3 3 3 3 3 3 4 3 4 4 4 4 4 4 4 4 4 4 4 4 4 4 4 4 3 3 3 3 3 3 2 2 2 2 2 2 2 2 2 2 2 2
64 71 70 66 68 62 59 69 73 63 53 50 52 49 39 32 29 24 26 29 23 17 13 9 8 8 6 5 5 4 4 5 5 4 3 3 3 2 3 2 2 2 2 2 3 3 3 3 3 3 4 4 4 5 5 5 4 4 4 4 4 5 4 4 4 4 4 4 3 3 3 2 2 2 2 2 2 2 2 2 2 2 2 2 2 2
64 72 72 68 74 74 71 78 74 55 45 46 49 52 46 38 35 31 28 27 23 17 13 9 7 6 4 4 4 3 3 4 5 5 4 4 4 3 3 3 2 2 3 2 3 3 3 3 3 3 4 4 4 5 5 5 4 4 4 4 4 4 4 4 4 4 4 3 3 3 2 2 2 2 2 2 2 2 2 2 2 2 2 2 2 2
68 76 79 77 84 83 80 90 85 62 53 56 51 48 48 44 38 31 25 23 20 15 11 7 5 5 4 3 4 3 3 3 3 4 4 3 4 3 3 3 3 2 3 3 2 3 3 3 3 3 4 4 5 5 5 5 4 4 4 4 4 4 4 4 4 4 3 3 3 3 2 2 2 2 2 2 2 2 2 2 2 2 2 2 2 2
75 83 86 81 85 83 81 98 104 80 67 69 58 47 46 44 37 28 21 16 13 10 9 7 4 4 3 3 4 3 3 3 2 3 3 3 3 3 2 2 3 2 2 3 3 3 3 3 3 4 4 4 4 5 5 5 4 4 4 4 4 4 4 3 4 4 4 3 3 3 2 2 2 2 2 2 2 2 2 2 2 2 2 2 2 2
77 85 85 78 84 91 86 96 107 90 71 70 64 53 46 39 31 24 17 13 11 10 9 7 4 4 4 3 4 4 3 3 3 2 3 3 3 3 3 2 2 2 2 2 3 3 3 3 3 3 4 4 4 5 5 5 5 4 4 4 4 4 4 4 4 4 4 3 3 3 2 2 2 2 2 2 2 2 2 2 2 2 2 2 2 2
73 81 85 80 88 100 94 90 95 84 68 66 64 56 47 35 25 21 18 15 14 11 9 8 5 4 3 3 3 4 3 3 3 3 3 3 2 3 3 2 3 2 2 3 3 3 3 3 3 3 4 4 4 4 5 5 4 4 4 4 4 4 4 3 4 4 4 4 3 2 2 2 2 2 2 2 2 2 2 2 2 2 2 2 2 2
71 80 90 88 86 91 89 87 90 81 69 67 61 51 47 39 28 23 20 16 14 12 9 8 6 4 3 3 3 4 3 3 3 3 3 3 3 3 2 2 3 3 3 3 3 3 3 3 3 4 4 4 4 4 4 4 4 3 3 3 3 4 3 3 4 4 4 4 3 3 2 2 2 2 2 2 2 2 2 2 2 2 2 2 2 2
77 84 92 91 87 89 87 88 94 88 74 70 63 52 48 44 33 25 21 16 13 11 9 7 6 4 3 3 3 3 3 3 3 2 3 3 3 3 3 3 3 3 3 3 3 3 3 3 4 4 4 4 4 4 4 4 4 3 3 3 3 3 3 3 3 4 4 4 3 3 2 2 2 2 2 2 2 2 2 2 2 2 2 2 2 2
80 82 88 91 93 99 97 91 94 93 80 72 66 55 48 43 34 25 20 16 12 10 8 7 6 5 3 3 3 3 3 3 3 2 3 3 2 3 3 2 3 3 3 3 3 3 3 3 4 4 4 4 4 4 4 4 4 3 3 3 3 3 3 3 3 3 4 3 3 3 2 2 2 2 2 2 2 2 2 2 2 2 2 2 2 2
78 77 85 89 88 95 103 102 101 98 82 66 59 51 44 41 35 26 19 15 12 9 8 7 6 5 4 3 3 4 3 3 3 2 2 2 2 3 3 2 3 3 2 3 3 3 3 3 4 4 4 4 4 4 4 4 4 3 3 3 3 3 3 3 3 3 4 3 3 3 2 2 2 2 2 2 2 2 2 2 2 2 2 2 2 2
80 76 80 84 81 85 97 105 106 103 86 65 52 47 42 39 35 26 19 14 11 9 8 7 6 5 4 3 3 4 3 3 3 2 2 2 2 2 2 2 2 2 2 2 3 3 3 3 4 4 4 4 4 4 4 4 4 3 3 3 3 3 3 3 3 4 4 3 3 3 2 2 3 2 2 2 2 2 2 2 3 3 2 2 2 2
87 81 79 81 81 82 88 93 95 97 93 79 63 50 42 37 33 26 19 14 11 9 8 7 6 5 4 3 3 3 3 3 3 2 2 2 2 2 2 2 2 2 2 2 2 3 3 3 3 4 4 4 4 4 4 4 4 3 3 3 3 3 3 3 3 3 3 3 3 3 3 2 2 2 2 2 2 2 3 3 3 3 3 3 2 2
98 91 83 78 75 74 77 77 72 70 72 70 60 48 40 35 29 23 17 13 10 9 8 7 6 5 4 3 3 3 3 3 2 2 2 2 2 2 2 2 2 2 2 3 2 3 3 3 3 3 3 3 3 4 4 4 3 3 3 3 3 3 3 3 4 3 3 4 3 3 3 2 2 3 2 2 2 3 3 3 3 3 3 3 2 3
107 97 84 75 70 66 66 65 60 54 53 53 48 41 36 32 27 21 16 12 10 9 8 7 6 4 4 4 3 3 3 3 2 3 2 2 2 2 2 2 3 2 2 2 2 3 3 3 3 3 3 3 3 3 4 4 3 3 3 3 3 3 3 3 4 4 3 3 3 3 3 3 3 3 2 3 3 3 3 3 3 3 3 3 3 3
107 100 89 79 71 67 64 61 58 56 55 53 47 39 34 30 26 21 16 12 10 10 9 7 5 4 4 4 3 3 3 3 3 2 2 2 2 2 2 2 2 2 3 2 2 3 3 3 3 3 3 3 3 3 4 4 4 4 3 3 3 3 3 3 3 4 4 3 3 3 3 3 3 3 3 3 3 3 3 3 4 4 3 3 3 3
Wind_Speed
48 50 53 54 56 58 60 63 65 67 68 70 72 74 75 76 79 80 80 81 82 83 85 87 90 91 91 90 92 94 94 95 96 97 97 97 98 99 100 101 102 103 104 105 105 105 105 105 105 106 107 109 110 111 112 113 114 114 114 114 114 114 114 114 114 113 113 113 113 112 112 113 113 113 113 113 113 113 113 113 113 113 113 112 112 112
53 55 57 59 61 63 65 67 68 70 72 73 75 76 77 78 79 82 82 82 82 83 84 87 90 93 93 92 93 95 96 96 97 97 98 98 99 99 100 101 102 103 104 104 104 103 103 103 104 105 106 107 108 109 110 111 112 113 113 113 113 114 114 113 113 113 113 112 112 112 111 111 111 112 112 112 112 112 112 112 112 112 112 112 111 111
57 59 61 63 65 66 68 69 70 71 73 74 75 76 77 78 79 81 83 85 84 84 85 87 89 93 95 94 93 95 95 95 96 95 96 96 96 97 97 99 99 101 101 101 100 100 100 100 101 102 103 104 105 106 107 108 109 109 110 110 110 111 111 112 112 111 111 111 111 111 110 110 110 110 110 110 110 110 110 110 110 110 110 110 109 109
60 62 64 65 66 68 69 70 71 72 73 74 75 76 77 79 79 80 81 84 85 85 85 85 87 90 94 93 91 92 92 92 92 92 93 93 93 93 95 97 97 98 99 99 98 97 98 99 99 100 101 101 102 103 104 105 106 107 107 108 108 109 109 110 110 110 110 110 110 110 110 110 109 109 109 109 109 109 108 109 109 109 108 108 108 108
62 63 64 65 67 67 69 70 71 73 74 75 77 78 78 79 80 80 79 80 81 83 83 83 83 86 92 93 89 89 89 89 89 90 91 91 92 92 94 95 96 96 97 96 96 96 97 98 98 99 100 100 101 102 102 103 104 105 105 106 106 107 108 108 108 109 109 109 109 109 109 109 108 108 108 108 108 108 107 107 108 108 108 107 107 107
62 63 64 65 66 68 69 70 71 73 74 75 76 77 77 78 78 79 78 78 79 81 82 82 81 82 88 92 89 86 86 87 88 89 90 91 91 91 91 93 94 94 94 93 93 94 95 95 96 97 99 100 101 101 102 102 103 104 105 105 106 106 106 106 107 107 107 107 107 107 107 107 107 106 107 107 106 106 106 106 106 107 107 106 106 106
62 63 65 65 67 68 69 69 70 71 72 72 73 74 75 76 76 77 78 78 78 80 80 81 81 80 83 89 86 82 83 84 85 87 89 90 89 88 88 89 91 91 92 91 91 91 91 92 93 95 97 98 100 101 101 102 103 104 105 105 105 105 105 105 105 105 105 105 105 105 105 105 105 104 104 105 105 105 105 105 105 106 106 105 105 105
63 64 65 66 66 66 66 67 68 70 70 71 71 72 74 74 75 76 76 77 78 80 80 80 81 80 82 87 84 79 81 81 81 84 86 88 87 86 86 87 87 88 89 90 90 90 89 90 90 92 94 95 97 98 99 100 101 102 103 104 104 104 104 104 104 104 104 104 104 104 104 103 103 102 102 102 103 103 103 103 103 104 105 105 105 104
63 64 64 64 64 65 65 66 68 68 69 70 70 71 73 74 76 77 78 79 81 84 85 84 86 86 87 91 88 85 86 86 85 85 87 90 90 90 89 88 88 89 89 89 88 88 89 89 89 90 91 93 94 96 96 97 98 98 99 100 101 101 101 101 101 102 102 102 102 102 102 101 101 100 99 99 100 100 100 100 100 101 102 102 103 103
61 61 62 62 63 64 64 65 67 67 68 70 71 73 75 76 78 80 82 83 85 87 89 90 92 93 94 95 94 93 94 94 92 92 93 96 98 98 98 96 94 93 93 91 90 89 89 89 89 90 92 93 94 95 96 96 97 97 98 98 99 100 99 99 99 99 99 99 99 99 99 99 98 98 97 97 97 97 97 96 97 97 98 99 100 101
59 59 60 60 61 63 65 67 69 70 70 71 72 71 71 72 74 76 79 80 80 82 84 87 90 93 95 95 94 94 96 96 96 96 97 99 101 103 103 102 100 99 97 96 95 93 93 92 91 91 92 93 94 95 96 97 97 98 98 99 99 100 100 99 99 98 98 98 98 98 98 97 97 96 96 95 95 95 95 95 95 95 96 97 97 98
58 59 60 61 62 64 66 68 70 71 70 70 71 70 69 69 68 69 72 74 74 75 78 81 85 88 90 92 92 93 95 96 97 97 98 99 101 104 105 105 104 103 102 101 100 99 98 96 95 93 92 92 93 94 95 96 97 97 98 99 100 100 101 101 100 99 98 99 99 98 98 97 97 96 95 95 95 95 95 95 95 95 95 96 96 96
60 61 62 62 63 62 61 62 65 67 68 69 70 72 73 72 69 69 71 72 71 72 74 79 81 83 86 89 90 93 94 96 96 96 97 98 100 102 104 105 106 106 105 104 103 103 101 100 97 95 93 92 91 91 92 93 94 95 96 97 98 98 99 100 100 100 100 99 99 98 98 98 97 96 95 95 94 94 94 95 95 95 96 96 96 96
60 61 61 61 61 61 61 62 64 67 70 72 74 76 78 79 78 76 77 77 76 72 72 77 80 80 83 86 89 91 93 94 94 95 96 97 98 100 101 103 104 105 106 105 105 104 103 101 99 97 95 93 91 89 89 90 91 91 93 94 95 96 97 99 100 100 101 101 100 99 99 98 97 96 95 94 94 93 94 94 95 95 96 96 96 96
60 60 61 62 63 64 66 68 70 71 73 75 77 78 80 83 83 82 83 84 84 78 75 77 79 79 81 84 88 90 91 92 93 95 96 97 98 99 99 100 101 103 104 105 105 105 104 103 101 99 97 95 93 90 89 89 89 90 90 91 93 94 95 96 98 99 100 101 101 101 100 99 98 97 96 95 94 94 94 94 94 95 96 96 96 96
63 65 66 67 68 68 70 71 72 73 74 75 77 77 79 81 82 83 83 86 88 86 81 80 80 80 82 86 88 90 90 91 94 95 97 98 99 99 99 99 100 101 102 104 105 105 104 103 102 101 99 97 95 93 92 91 90 90 89 89 89 89 91 92 94 96 98 99 100 100 100 100 100 99 97 96 95 94 94 94 94 94 95 96 95 96
63 67 68 69 69 70 71 71 72 73 74 74 75 76 77 78 81 83 84 85 88 88 85 83 82 81 85 88 89 89 90 92 94 96 97 97 98 98 98 98 98 98 99 100 100 100 100 100 99 99 98 96 94 93 92 91 91 90 89 88 87 87 87 89 90 92 94 96 97 98 99 99 100 99 98 97 95 94 94 94 93 93 94 95 96 96
61 66 68 68 68 69 70 71 72 73 73 74 75 77 78 79 80 83 87 89 90 90 88 86 82 82 86 90 90 90 91 92 94 95 96 96 95 95 95 95 95 95 95 95 96 96 96 95 94 93 92 92 91 91 90 89 89 88 88 87 86 85 85 86 87 89 90 91 92 93 95 96 97 98 97 96 95 94 94 93 92 92 93 94 95 95
60 63 66 67 66 67 68 69 70 72 73 74 76 79 81 82 82 82 86 91 93 93 93 90 85 83 88 92 93 93 93 94 95 95 95 95 94 94 93 92 92 92 93 92 92 91 90 89 88 87 87 86 86 87 87 86 85 83 83 83 84 83 82 83 84 85 86 87 87 88 89 90 92 93 93 93 92 92 92 92 91 91 91 92 93 92
59 60 64 66 65 65 67 68 69 70 72 73 76 78 81 83 83 82 83 87 91 94 96 95 90 88 91 95 95 95 96 96 97 97 97 97 97 96 95 94 93 92 92 90 87 86 85 85 85 84 84 83 83 84 84 85 84 82 80 80 81 82 81 81 82 82 82 82 83 84 85 86 87 87 88 88 88 88 88 88 89 89 89 89 88 88
58 59 61 64 65 66 68 69 71 72 73 74 75 77 79 80 82 81 80 82 87 91 97 98 94 91 94 97 97 97 98 99 100 100 100 101 101 100 99 97 95 92 88 85 82 80 79 78 79 79 80 79 78 78 79 81 82 81 80 79 79 79 79 80 80 80 80 80 80 81 82 83 83 84 84 85 85 85 84 84 85 85 86 85 84 84
58 60 62 63 64 65 68 72 74 75 76 76 77 78 80 81 83 84 83 82 84 88 94 97 95 94 97 100 100 100 101 102 103 103 103 103 102 100 98 95 92 88 84 80 77 75 72 71 70 71 71 71 70 70 70 72 73 74 75 75 74 74 75 75 75 76 76 76 76 78 79 79 79 80 80 81 81 82 82 82 82 82 83 82 81 81
60 61 64 66 66 68 73 77 78 79 79 78 78 79 80 82 83 85 86 85 84 86 90 93 93 94 98 103 104 104 103 102 102 102 102 100 98 96 94 92 90 87 84 81 78 74 70 67 65 64 64 63 63 63 63 63 65 66 67 68 68 68 68 69 69 69 70 71 72 73 74 75 76 76 76 76 77 78 79 79 80 80 80 79 78 79
64 65 66 67 64 65 73 78 79 81 80 77 76 76 78 80 81 83 85 86 86 88 92 95 95 94 98 102 104 105 104 102 101 100 99 96 92 90 88 87 87 85 83 80 78 74 71 68 65 63 61 60 60 60 60 60 61 62 63 64 65 65 66 66 66 66 67 67 68 69 71 72 73 74 74 75 76 76 77 77 77 77 77 76 75 75
69 71 73 74 68 62 64 67 67 70 74 75 76 77 79 81 82 84 87 88 88 88 92 98 98 96 97 101 102 103 103 100 99 98 97 93 89 86 84 83 82 80 77 75 74 72 70 68 65 63 60 59 58 57 57 58 59 60 61 63 63 63 64 64 64 64 65 65 65 66 67 68 69 70 72 74 75 75 75 75 75 75 75 74 73 72
74 76 80 86 85 77 75 76 74 73 75 77 80 82 83 84 85 87 89 90 90 89 91 98 101 98 98 100 101 101 99 97 96 95 93 89 85 82 80 78 76 73 70 68 67 66 65 63 62 60 58 57 55 55 54 55 57 58 59 61 61 60 60 60 61 61 62 62 62 62 63 64 65 66 67 69 70 71 72 72 73 72 73 73 73 72
77 78 81 88 93 90 89 90 90 87 85 84 85 86 87 87 88 91 92 93 94 93 92 96 101 102 100 100 100 99 96 94 94 93 89 83 78 75 73 71 68 66 63 61 59 57 57 57 57 56 55 53 52 52 52 52 53 55 56 57 57 56 55 55 55 57 57 58 58 59 60 61 61 62 63 65 66 67 68 68 69 69 69 70 71 71
78 79 80 85 90 91 90 92 93 91 89 88 88 89 90 91 92 93 93 94 96 98 96 96 100 103 102 100 99 98 96 93 93 90 84 76 71 69 66 63 61 60 59 58 56 54 53 53 53 53 52 51 50 50 50 49 50 50 51 51 52 52 51 51 52 53 53 54 55 56 57 58 58 59 60 62 62 63 65 66 66 66 66 67 67 67
78 79 79 81 86 89 88 91 92 91 90 89 89 91 92 92 93 93 94 96 97 98 99 98 99 101 102 101 98 96 93 92 91 87 79 73 70 66 63 61 59 57 56 55 54 53 52 51 50 50 50 49 49 48 47 48 48 48 48 48 48 48 48 48 49 50 51 52 53 54 55 55 55 56 58 59 59 60 61 62 63 63 63 63 63 63
79 80 80 80 83 86 87 90 92 90 89 88 89 90 91 91 94 96 96 96 95 95 96 98 98 98 100 99 96 93 90 89 90 86 79 74 71 66 61 59 58 57 55 54 53 52 51 50 49 48 47 47 46 45 45 46 47 47 46 46 46 46 46 46 46 47 48 49 50 51 52 52 53 54 56 57 57 58 59 59 59 59 59 59 59 58
80 81 81 80 81 84 86 89 91 89 87 86 87 88 88 89 92 95 95 94 93 92 93 95 96 95 96 96 93 92 91 90 90 86 78 72 69 64 60 57 56 56 55 54 54 53 52 50 49 47 46 45 44 43 43 44 45 45 44 44 44 44 44 44 44 44 45 46 47 48 48 49 50 52 54 55 55 56 56 56 56 56 55 55 53 52
81 82 82 81 81 82 83 86 89 87 84 85 87 87 86 86 88 91 94 95 95 95 94 95 96 96 95 94 91 89 88 87 87 82 74 69 66 62 58 55 54 53 53 53 53 53 52 51 49 47 45 44 43 43 43 42 43 43 42 42 42 42 42 43 43 43 44 45 46 46 46 47 48 49 51 52 52 53 52 52 52 52 51 50 48 46
81 81 82 82 82 82 83 85 88 88 84 84 86 85 85 85 84 87 93 96 96 99 100 99 99 97 94 90 87 83 82 83 85 80 73 68 64 60 58 56 53 52 52 52 52 52 52 51 49 47 45 44 43 43 43 42 42 41 40 39 40 41 41 42 43 43 44 45 45 44 44 45 47 48 50 50 51 51 50 50 50 50 49 48 46 44
80 82 84 85 85 85 85 87 88 86 83 83 87 88 88 89 87 87 94 98 97 98 100 99 98 95 91 87 85 82 80 82 85 82 76 73 68 62 58 56 54 52 51 52 52 52 52 51 50 47 45 44 44 44 45 44 43 42 42 40 40 41 41 42 42 42 42 43 43 43 43 44 46 47 49 50 51 51 51 50 50 49 48 48 46 45
81 83 85 87 87 87 89 91 91 87 85 87 92 93 91 91 90 87 90 97 98 97 97 97 97 95 92 87 85 82 79 81 83 81 76 73 69 64 60 56 54 53 51 51 52 52 52 51 49 47 45 44 44 45 45 46 45 44 44 43 42 43 43 42 41 41 42 42 43 43 43 44 45 46 47 48 49 50 50 49 49 49 49 48 47 46
83 85 87 89 90 89 89 94 96 94 92 92 95 95 92 92 92 89 89 96 100 100 100 99 98 96 92 87 84 79 76 76 79 78 74 71 68 65 61 58 55 53 51 50 51 51 50 49 47 45 43 42 43 43 44 45 45 44 43 42 41 42 42 41 40 40 40 41 41 42 42 42 44 44 44 45 46 47 47 47 47 47 47 47 46 45
84 87 88 90 92 92 92 95 97 95 93 93 96 98 98 97 99 99 98 100 102 102 103 101 98 94 89 84 80 74 69 69 73 75 72 69 68 65 63 60 56 54 52 51 51 51 50 49 46 44 42 41 41 42 42 44 44 43 42 41 41 41 41 39 38 38 38 38 38 39 39 40 40 41 41 41 43 43 44 44 44 44 44 44 44 43
85 88 90 91 94 95 94 97 98 95 94 96 100 102 103 103 104 103 102 101 101 102 101 99 95 90 84 80 77 72 65 62 64 69 69 67 66 64 63 62 59 57 55 53 52 52 51 50 48 45 42 41 40 41 42 43 44 42 41 40 39 40 39 38 37 37 37 37 37 37 37 37 37 38 38 38 39 40 41 41 40 40 40 40 40 39
86 88 91 92 94 95 96 100 103 102 100 102 104 104 105 106 105 104 101 99 97 97 97 96 93 88 83 80 78 75 70 62 58 60 63 63 63 62 59 58 57 56 56 54 53 52 51 49 48 46 44 42 41 42 43 44 45 43 41 40 39 39 38 37 36 36 36 36 36 36 36 36 35 35 35 35 36 37 37 36 35 35 35 35 35 35
87 89 91 92 95 97 98 100 104 105 105 106 107 107 106 106 105 104 101 98 96 96 97 98 96 91 86 83 80 76 74 69 61 57 57 57 59 61 58 56 55 53 53 53 52 52 52 50 47 46 44 42 42 43 43 45 46 45 42 41 40 40 39 37 37 37 36 36 36 36 35 35 34 33 33 33 33 32 32 31 31 31 31 31 31 31
88 90 92 94 97 99 100 101 103 105 105 106 107 108 108 105 103 101 102 104 104 103 103 102 100 95 89 86 82 77 74 73 69 64 62 60 60 61 61 59 58 56 53 52 51 50 50 49 46 45 43 41 41 41 42 44 46 46 44 42 41 41 40 38 37 37 36 35 35 35 34 33 32 32 31 31 30 28 27 26 26 26 26 26 26 27
91 93 96 98 99 100 101 102 103 104 105 106 107 108 109 108 106 105 107 110 112 112 109 106 102 98 92 88 85 80 76 74 72 69 67 65 63 61 61 60 59 59 58 56 54 52 50 49 47 46 44 43 42 42 42 44 46 46 45 43 42 42 41 39 37 37 36 35 34 33 32 31 31 30 29 29 27 25 22 21 21 22 23 23 23 23
96 98 99 100 101 102 103 105 107 108 109 111 111 111 114 116 115 114 114 114 114 115 113 108 103 99 96 91 87 83 78 74 72 69 66 65 63 62 61 60 58 58 58 57 56 54 51 49 48 47 46 45 44 44 43 45 46 46 45 44 42 42 41 39 37 36 36 34 33 32 30 30 29 29 28 26 25 22 19 17 17 19 20 20 20 20
99 100 100 101 103 105 107 110 113 115 115 116 117 118 119 121 120 117 115 113 112 112 113 110 104 99 96 93 89 85 79 74 71 68 64 63 62 61 61 60 58 56 56 55 54 53 50 48 47 46 46 44 44 44 44 44 46 46 45 44 43 42 41 39 37 35 35 34 32 31 30 29 28 27 26 24 22 20 17 15 15 17 18 19 19 18
100 100 101 102 103 106 109 112 115 117 116 117 117 117 117 118 118 116 114 111 108 108 109 110 105 98 93 89 87 84 79 74 71 67 64 61 60 60 59 59 57 55 53 53 52 51 48 46 44 44 44 43 42 43 43 43 44 45 44 43 42 41 40 38 36 35 34 33 31 30 29 28 27 26 25 22 20 17 15 14 15 16 16 17 17 17
101 102 103 104 103 104 106 109 112 115 115 113 113 113 113 115 116 115 113 109 105 102 102 103 102 99 92 86 83 82 79 75 71 67 64 62 61 60 59 59 58 57 55 53 53 51 49 46 44 43 43 43 42 42 42 43 43 43 43 42 41 40 39 38 36 35 33 32 30 29 28 27 26 25 23 21 18 15 13 13 14 15 15 16 16 16
103 103 104 105 105 104 105 106 109 113 115 114 112 112 112 113 114 113 110 107 102 98 96 95 96 97 92 85 80 78 77 74 70 67 64 62 61 61 60 60 59 58 57 56 54 52 49 46 44 42 41 41 42 41 41 41 41 41 41 40 40 39 38 37 36 35 33 32 30 29 27 26 24 23 22 19 16 14 12 13 14 15 15 15 14 14
105 106 105 106 107 107 106 106 106 109 113 115 113 112 111 111 111 109 107 105 100 96 93 90 89 91 90 84 77 75 75 73 70 68 65 63 62 61 61 60 60 58 58 57 55 52 49 46 44 42 40 39 39 39 40 39 39 39 39 39 38 38 37 36 36 34 33 32 30 28 27 25 24 22 20 18 15 13 12 13 14 15 15 15 14 13
107 107 107 106 107 107 107 107 104 104 107 110 111 110 110 110 110 109 106 104 100 96 92 88 86 87 88 85 79 75 75 73 70 68 66 63 61 61 60 60 60 58 57 57 55 52 48 46 44 42 40 39 38 38 38 38 38 38 38 38 38 38 37 36 35 34 33 31 30 28 26 24 23 22 20 18 15 13 13 13 14 15 15 14 13 12
109 108 108 107 108 108 109 111 110 109 110 112 113 113 112 113 113 112 109 106 104 100 97 93 90 88 88 87 83 77 74 73 70 68 66 64 62 60 59 59 59 58 57 57 56 53 50 48 46 44 42 39 38 37 37 38 39 39 38 38 37 38 37 36 35 33 32 31 29 27 25 23 22 21 20 18 15 13 13 14 14 15 15 13 12 11
112 112 112 111 111 112 113 115 117 117 117 118 118 117 117 117 117 117 115 113 110 107 104 99 95 91 89 88 86 81 75 73 71 68 66 65 63 62 60 59 59 58 58 57 55 53 51 49 47 45 43 41 39 38 38 39 40 40 39 38 37 37 37 36 34 33 32 30 28 26 24 23 22 21 19 17 15 14 14 14 15 15 15 13 11 9
Wind_Direction
295 294 294 293 293 293 292 292 292 292 292 291 291 291 291 291 291 290 290 289 289 290 290 290 290 289 288 288 288 287 287 287 287 287 287 287 287 286 286 286 285 284 284 283 283 283 283 283 283 283 282 282 282 281 281 281 280 280 280 280 280 280 279 279 279 278 278 278 278 277 277 277 277 277 277 277 277 277 277 276 276 276 276 276 276 275
294 294 294 293 293 293 293 293 293 293 293 293 293 293 293 293 292 292 292 291 291 291 291 291 291 290 289 288 288 287 287 287 287 287 287 287 287 286 286 285 285 284 283 283 283 283 283 282 282 282 281 281 281 281 281 281 281 281 281 282 282 282 281 281 281 280 280 279 279 278 278 278 277 277 277 277 277 277 276 276 276 276 275 275 275 274
295 295 295 295 295 295 295 295 295 295 295 295 295 294 294 294 294 294 294 294 293 293 292 291 291 291 290 289 288 288 288 288 289 289 289 288 288 287 287 286 285 284 283 283 283 283 283 283 282 282 281 281 281 281 280 280 280 280 280 280 280 280 280 280 280 280 280 279 279 278 278 278 277 277 276 276 276 275 275 275 275 274 274 274 274 273
297 297 297 297 297 297 297 297 297 297 296 296 296 295 295 295 294 294 294 294 294 294 293 292 292 292 291 290 290 290 291 291 292 292 291 290 290 289 287 286 286 285 285 286 286 285 285 284 283 282 282 281 281 280 280 279 279 279 279 278 278 278 278 278 278 278 278 278 278 278 278 277 277 277 277 277 276 276 276 276 276 276 275 275 275 274
299 299 299 299 299 300 300 300 300 299 299 298 297 297 296 296 296 296 295 295 295 295 295 294 294 294 294 293 293 293 294 295 295 294 293 292 291 289 289 288 288 287 287 287 287 286 285 285 284 283 283 282 281 280 280 279 279 279 278 278 278 277 277 277 277 277 277 277 277 277 277 277 277 277 277 277 277 277 277 277 277 277 277 276 276 276
301 301 301 302 302 302 301 301 300 300 299 299 298 299 299 299 299 299 299 298 298 297 297 296 296 296 295 294 295 296 297 297 296 295 293 292 291 290 290 289 288 288 287 287 286 285 285 284 284 284 283 283 282 281 281 281 280 280 279 279 279 278 278 278 278 277 277 277 277 277 277 277 277 277 277 277 277 277 277 277 277 277 276 276 276 276
304 304 303 303 303 302 302 301 301 300 300 301 301 302 302 302 301 301 300 300 299 298 297 297 296 295 293 293 294 296 296 295 294 293 292 291 290 290 289 288 287 287 287 286 285 284 284 283 283 283 283 282 282 282 281 281 281 281 280 280 280 280 279 279 279 278 278 278 277 277 277 277 276 276 276 277 276 276 276 276 276 276 276 275 275 275
305 305 304 304 304 304 304 304 304 304 304 304 304 304 303 302 302 301 301 301 300 299 299 298 297 297 296 296 296 298 298 296 295 294 293 292 291 290 289 289 289 288 288 287 287 286 285 284 283 283 282 282 282 281 281 281 281 280 280 280 280 280 279 279 279 279 279 278 278 278 277 277 276 276 276 276 276 275 275 275 275 275 275 275 275 274
307 307 307 307 307 307 307 307 306 305 305 305 306 306 306 306 307 307 307 306 306 306 306 305 304 304 304 303 303 304 303 301 300 299 299 298 297 296 295 294 293 292 291 291 290 289 288 288 287 286 285 284 283 283 282 281 281 281 280 280 280 279 279 279 278 278 278 278 278 277 277 276 276 275 275 274 274 274 274 274 274 274 274 274 274 274
309 309 309 310 309 309 308 307 307 308 309 310 311 312 312 312 312 311 311 310 309 309 309 308 307 307 306 306 306 306 304 303 303 303 302 302 301 300 300 299 298 296 296 295 293 292 291 290 289 288 287 286 286 285 285 285 284 284 283 282 282 281 280 280 279 278 278 277 277 277 276 275 275 274 274 273 273 273 273 273 272 272 272 272 272 272
310 311 311 311 311 312 312 312 313 314 314 314 313 312 310 309 309 309 308 308 307 306 305 304 304 304 302 303 304 301 300 300 301 302 301 301 300 300 300 300 299 299 298 297 296 295 294 292 291 290 289 288 288 287 287 287 286 286 285 285 284 284 283 282 281 280 280 279 278 277 276 276 275 274 274 273 273 272 272 271 271 271 271 270 270 270
314 314 315 316 317 318 317 316 315 313 312 310 309 306 304 303 302 302 302 302 302 301 300 299 299 299 298 299 299 297 296 297 298 298 298 298 299 298 299 299 299 299 299 299 298 297 296 294 293 292 291 290 289 288 288 287 286 286 285 285 285 285 284 284 283 282 281 280 279 278 277 276 275 275 274 274 273 273 272 272 271 270 270 269 269 269
318 319 319 319 318 316 313 310 308 307 305 304 302 301 299 296 295 293 293 293 293 295 296 296 296 297 296 297 297 296 295 296 296 296 296 296 297 297 298 298 299 299 299 299 298 298 297 296 295 293 292 290 289 288 287 286 285 285 284 284 284 283 283 283 283 282 282 281 280 279 277 276 275 274 274 273 272 272 272 272 271 270 269 269 268 268
319 318 316 314 312 309 306 303 301 300 300 299 299 298 298 296 296 295 293 292 292 293 295 296 297 297 297 298 297 297 297 296 296 295 295 295 295 295 296 297 298 298 298 298 298 298 297 297 296 295 294 292 291 289 288 286 285 284 284 283 283 282 282 282 282 282 282 281 280 279 278 276 275 274 273 272 271 271 270 270 270 269 269 268 268 267
313 311 310 308 306 305 303 302 301 301 301 301 302 302 302 302 302 302 301 300 299 299 300 301 302 302 301 301 300 299 299 298 297 296 295 295 295 295 296 297 298 298 298 299 298 298 298 298 298 297 296 295 293 292 290 288 286 284 283 282 281 281 281 281 281 281 281 281 280 280 279 278 276 275 273 272 271 270 269 268 268 268 267 267 267 267
310 309 308 307 306 306 307 306 306 306 306 305 305 306 306 306 306 307 307 306 305 305 305 305 305 305 304 302 301 300 300 299 298 298 298 298 298 299 299 299 299 299 298 298 298 298 298 298 298 298 297 296 295 293 291 289 287 285 284 282 281 280 279 279 278 278 278 278 278 278 278 278 277 276 274 273 271 270 269 268 267 267 267 266 266 266
309 308 309 309 310 310 311 311 310 309 309 309 309 309 309 310 311 310 309 308 307 306 306 305 305 307 306 304 303 303 303 302 302 301 301 301 301 301 300 300 299 298 298 297 297 297 297 297 297 297 296 295 293 292 290 288 287 285 284 282 281 280 279 277 277 276 276 276 276 276 276 276 276 276 275 274 273 271 270 269 268 267 267 267 266 265
309 310 311 312 313 313 313 314 314 314 314 315 315 315 315 315 315 313 311 309 307 306 306 307 308 310 308 307 306 306 306 305 304 304 303 303 302 301 301 300 299 298 298 298 298 298 298 297 296 294 293 292 290 289 287 286 285 284 284 283 282 281 279 278 277 276 275 274 274 274 274 275 275 275 276 275 275 273 272 271 269 268 267 267 266 266
311 313 314 314 314 315 315 316 318 320 321 322 322 322 321 319 317 315 313 311 310 310 310 310 313 314 311 308 308 308 307 307 307 306 306 306 305 304 303 302 302 302 302 301 301 299 298 296 294 292 291 290 290 289 289 288 287 285 285 285 284 283 282 281 279 278 277 277 276 275 275 275 275 275 275 275 274 274 273 272 271 270 268 268 267 267
314 316 318 318 318 319 320 321 323 323 323 324 325 324 323 322 319 318 318 317 316 316 314 313 314 316 312 309 310 310 311 311 310 310 311 310 310 309 308 308 308 307 306 304 302 299 297 295 294 294 293 292 292 292 291 291 290 290 289 288 287 286 285 284 282 281 280 280 279 278 277 276 276 275 275 274 273 273 272 272 271 271 270 269 269 268
319 321 322 324 325 326 325 324 325 325 325 326 326 324 323 322 321 320 321 321 320 318 315 313 314 317 315 313 314 314 315 315 315 316 315 315 313 312 311 311 310 309 306 303 301 299 297 296 294 293 292 292 292 291 291 290 291 291 291 290 288 287 286 285 284 283 282 281 280 279 278 278 277 276 276 275 275 275 274 273 272 271 271 270 270 269
325 326 327 329 329 328 328 328 330 330 329 329 328 327 326 325 324 321 319 318 318 317 315 315 318 321 320 318 318 319 319 319 318 318 316 314 312 312 312 312 311 308 306 305 304 302 300 297 295 293 292 292 292 291 289 288 287 287 287 286 285 285 284 283 283 283 282 282 281 280 280 279 278 278 277 277 277 276 276 274 273 271 270 269 268 267
330 331 331 332 333 334 334 334 335 334 333 332 331 329 328 325 323 319 316 316 317 319 320 319 321 324 323 321 321 321 321 320 318 316 314 313 313 314 315 314 311 310 310 309 308 306 304 302 300 298 296 295 294 292 290 289 287 286 285 285 284 284 283 283 282 282 282 282 282 281 281 281 280 279 278 277 276 275 275 274 273 272 271 270 268 267
333 333 333 332 333 336 337 336 336 336 334 331 329 327 326 325 324 322 322 323 324 326 325 323 322 325 325 323 322 321 320 319 317 315 313 314 316 317 316 314 312 312 311 310 309 308 308 306 305 303 301 300 298 297 295 294 292 291 290 289 288 287 287 287 286 286 285 284 283 283 282 282 282 282 281 280 278 277 276 276 275 274 273 272 270 269
337 336 335 334 331 331 331 329 328 330 330 330 329 329 329 330 330 329 329 328 328 328 329 327 325 326 326 324 322 321 320 319 317 315 315 317 320 320 316 313 312 311 311 310 310 309 309 308 307 306 304 302 301 299 297 296 294 293 291 290 290 289 289 289 288 287 286 285 284 283 282 281 281 280 280 280 279 279 279 279 278 277 276 275 273 272
339 339 339 338 336 335 334 331 330 331 333 334 335 334 334 334 334 333 331 330 328 329 331 329 326 326 326 324 323 321 320 319 318 316 317 320 322 320 316 313 312 311 310 308 308 308 308 307 306 305 304 303 301 299 297 296 294 293 292 290 290 290 289 289 289 287 286 285 284 283 282 281 280 279 279 279 279 279 279 278 278 277 277 276 276 275
340 341 341 340 338 338 339 338 337 338 338 339 339 338 337 337 337 335 333 331 329 329 331 329 327 326 326 324 323 322 321 321 318 317 319 322 321 317 314 313 311 309 308 306 306 306 306 305 305 304 303 302 300 299 297 296 294 293 292 291 291 291 290 290 288 288 287 286 285 284 282 282 281 280 279 278 278 278 277 276 276 275 275 275 275 275
341 341 342 341 338 338 339 338 338 339 339 340 340 339 339 339 338 336 334 332 331 330 330 329 327 326 326 326 326 325 324 322 319 318 321 323 320 317 315 314 311 310 309 309 309 309 308 307 305 304 303 303 302 301 299 297 295 294 293 293 293 293 292 291 289 288 287 286 285 283 282 281 280 279 278 277 276 275 275 274 274 274 273 273 273 273
341 341 341 341 338 337 338 338 338 339 340 340 341 340 340 340 338 336 335 333 331 331 330 329 328 327 327 328 328 327 326 323 319 319 323 325 323 321 320 318 315 314 313 312 312 311 310 308 307 305 305 304 304 303 302 300 298 297 296 295 294 293 292 291 290 289 289 288 287 286 285 284 283 281 280 278 277 275 274 274 274 274 274 273 273 272
341 340 340 341 339 338 338 338 337 339 340 340 340 340 339 339 339 337 335 332 329 329 329 328 328 329 330 330 330 329 327 324 320 322 327 328 325 324 324 321 319 318 317 316 315 313 312 310 308 307 306 305 305 304 303 301 300 299 298 297 296 295 293 292 291 291 290 290 289 289 289 289 288 286 284 282 281 279 278 277 277 276 276 275 275 274
341 340 339 340 340 339 339 339 338 339 340 340 339 339 338 339 340 337 334 329 326 326 327 328 329 331 332 331 331 332 331 327 323 324 328 328 326 326 325 324 322 321 320 319 318 316 315 313 312 310 309 308 306 304 303 302 301 300 300 299 298 298 297 296 295 295 294 293 292 291 291 291 290 288 287 285 284 283 282 282 281 280 279 279 279 278
341 340 340 340 341 340 340 339 338 339 340 340 339 337 337 339 339 337 334 330 327 327 328 330 332 334 335 334 333 334 333 328 323 323 327 327 326 327 327 325 324 322 321 321 319 318 317 316 315 314 312 311 308 306 305 304 303 302 302 302 302 301 302 301 301 301 300 298 297 296 295 293 292 290 288 287 286 286 286 286 285 284 284 284 283 282
342 341 340 341 342 341 341 340 339 340 341 341 338 336 337 338 337 338 336 332 331 332 333 334 335 336 336 334 333 335 334 328 323 324 327 328 327 329 328 326 325 324 323 322 321 320 319 318 317 316 314 312 309 307 306 305 304 303 304 305 305 306 306 306 305 305 303 302 300 300 298 297 295 294 292 292 291 291 291 291 290 289 289 288 287 285
343 343 342 342 343 342 342 341 341 341 341 341 340 338 338 338 337 340 340 335 333 334 335 335 336 336 337 336 335 337 337 332 326 327 330 330 328 329 329 328 327 326 326 325 324 322 321 320 319 318 315 313 311 310 309 309 309 308 308 309 310 310 309 308 307 306 305 304 304 303 302 300 298 297 295 295 294 293 293 293 292 292 291 291 289 288
346 345 344 344 344 344 344 343 343 343 343 344 343 339 339 339 338 340 342 338 334 334 335 336 337 338 339 339 338 339 341 336 329 328 330 329 327 328 329 329 329 329 329 328 326 324 323 322 320 319 316 314 313 312 312 311 311 311 311 312 312 312 310 310 309 309 308 308 308 307 305 302 300 298 296 294 293 292 292 292 292 291 290 289 288 287
348 347 346 345 345 346 347 346 345 346 346 346 344 341 340 340 337 338 342 340 337 336 336 337 339 340 340 340 341 340 342 339 331 327 329 329 328 329 330 329 330 331 330 330 328 326 324 322 320 318 316 314 313 312 311 310 310 310 311 311 311 311 310 310 310 310 310 310 309 307 304 302 300 297 295 292 291 291 290 290 289 288 287 286 285 284
350 348 347 347 347 349 350 349 347 347 347 346 344 343 343 342 340 341 343 342 340 338 338 338 340 341 340 341 341 339 341 341 334 329 330 330 329 331 331 331 332 332 332 332 330 327 325 323 321 320 317 315 313 311 310 309 309 309 310 311 312 311 310 311 312 312 311 310 308 306 303 301 298 296 294 292 291 291 290 288 287 285 284 283 282 281
352 351 350 351 350 351 352 351 348 348 348 347 346 346 346 345 343 343 343 343 341 339 338 337 339 340 341 341 341 339 339 342 338 332 332 332 331 332 333 333 333 334 334 333 332 329 327 326 324 322 320 318 315 312 310 309 309 310 312 313 313 312 312 313 314 314 313 312 310 307 304 302 299 296 295 294 292 291 288 286 284 282 281 280 279 278
355 354 353 353 353 353 354 353 350 349 351 349 347 346 348 347 344 343 342 341 340 339 337 337 339 342 343 344 344 342 339 341 341 336 333 333 332 331 333 333 334 335 334 334 333 331 329 327 325 323 322 321 317 314 312 311 311 313 315 316 317 315 315 317 318 318 317 315 313 311 308 305 302 300 298 296 293 290 287 284 282 280 279 277 275 274
358 356 355 355 354 354 355 354 352 350 351 351 348 347 348 347 345 343 340 338 338 339 340 340 342 344 346 346 346 345 341 339 340 339 336 335 333 332 333 334 335 335 335 334 334 332 330 328 326 324 322 321 318 316 314 313 313 316 319 320 321 320 319 321 321 321 320 318 316 314 311 308 305 303 301 298 294 289 285 283 281 279 277 274 272 270
359 358 357 357 356 355 355 354 352 351 351 351 350 348 347 346 344 343 341 340 340 342 343 343 344 345 347 347 347 346 344 341 341 341 340 339 337 336 336 337 337 336 336 336 335 334 331 328 326 324 322 321 318 316 315 314 315 318 322 324 324 322 322 323 324 323 322 321 319 316 312 309 307 306 304 300 295 289 284 283 282 280 276 272 269 267
0 359 358 358 357 355 354 354 353 352 351 351 351 349 347 346 345 345 346 345 344 344 344 345 345 345 346 347 348 347 346 344 342 342 342 340 339 338 337 338 339 338 337 337 336 335 333 329 327 325 324 323 321 319 318 317 318 320 323 325 325 323 323 324 326 325 324 322 320 317 314 311 310 309 306 302 296 290 286 285 285 283 279 274 270 267
1 360 358 357 356 355 354 354 353 353 353 352 351 351 350 349 349 349 349 348 346 344 344 344 345 345 345 347 348 347 346 344 342 342 342 340 339 339 338 339 340 339 337 337 336 336 334 331 328 327 326 325 323 322 321 320 320 322 324 326 326 324 324 326 327 326 324 324 321 319 316 315 313 311 309 304 299 294 291 291 291 289 284 279 274 268
1 360 358 357 357 356 355 355 354 353 354 353 352 353 353 351 351 350 349 349 347 345 343 343 345 346 346 347 348 347 345 344 342 342 342 341 340 339 339 339 339 339 338 337 336 336 334 331 329 327 326 325 324 322 322 321 321 322 325 326 326 325 325 326 327 326 326 325 323 322 320 318 316 314 311 307 302 298 298 301 303 298 293 286 278 270
1 0 359 358 358 357 356 355 354 353 353 353 353 353 353 352 351 350 350 349 348 346 345 343 343 345 346 347 347 345 343 342 342 342 342 342 341 340 340 339 339 339 339 338 337 337 335 333 330 328 326 325 323 322 321 321 322 323 325 327 327 326 326 327 327 328 327 326 325 324 322 320 318 316 313 308 304 302 306 312 313 307 301 293 284 274
1 1 360 358 359 358 357 356 354 353 353 353 353 353 353 352 351 351 350 349 348 347 346 343 341 343 345 347 347 345 343 342 342 342 343 343 342 341 341 341 340 340 340 340 340 339 338 335 332 330 328 326 325 324 323 323 324 325 326 327 327 327 327 328 328 329 328 327 327 326 324 322 319 317 314 310 307 308 315 321 321 315 307 297 287 277
1 1 0 358 358 358 358 356 355 353 353 353 353 353 354 353 352 351 350 349 348 348 347 345 342 342 344 347 348 346 343 341 341 343 344 344 343 343 343 342 342 341 341 342 342 341 339 336 334 332 331 328 327 326 326 326 326 326 327 328 328 328 330 330 329 329 329 329 329 328 325 323 322 320 317 313 312 316 325 330 328 321 311 298 287 277
0 0 360 359 358 357 357 356 356 355 354 353 353 354 354 353 352 351 350 349 348 348 348 347 344 343 343 346 348 348 344 342 343 344 345 345 345 344 344 343 343 342 342 342 342 342 339 337 335 334 333 331 330 329 328 328 328 328 329 330 330 330 332 332 331 330 331 330 330 329 327 326 326 324 321 318 318 325 333 336 332 325 314 301 290 278
0 359 359 359 358 357 356 355 355 355 355 354 354 354 354 354 353 352 351 349 349 348 349 348 347 346 345 346 348 349 347 344 344 345 345 346 346 345 345 345 343 343 343 342 342 342 340 338 337 336 336 336 334 333 332 331 331 331 332 333 332 332 333 334 333 331 331 330 330 329 328 328 329 328 325 324 326 334 340 341 336 327 316 305 294 282
0 359 359 359 358 357 356 354 354 355 356 355 354 354 355 354 353 352 352 350 349 349 350 349 349 349 348 347 348 350 349 346 345 346 345 346 346 346 347 345 343 343 343 343 343 342 341 340 339 339 339 339 338 338 337 336 335 334 335 335 334 333 333 334 333 332 331 330 330 330 330 331 331 331 329 329 333 339 345 344 339 330 320 309 298 287
0 359 359 359 358 358 357 356 355 355 356 356 355 355 355 355 354 353 353 352 351 351 351 350 350 350 350 349 348 349 349 347 346 346 346 346 347 347 347 346 344 343 344 344 344 343 341 340 340 340 341 341 342 342 341 339 337 336 336 337 336 334 334 334 334 333 332 330 330 332 333 333 334 333 332 333 337 343 347 344 338 329 321 310 298 286